FW1364 Weather Reports


time (UTC)temp
F
wind
direction
speed
knots
gust
knots
rain 1hr
in
rain 24hr
in
rain mn
in
humidity
%
barometer
mb
20260504044552 40 232 0.0 0.0 0.00 0.00 0.00 86 1014.8
20260504043045 39 232 0.0 0.0 0.00 0.00 0.00 86 1014.9
20260504041542 39 231 0.0 0.0 0.00 0.00 0.00 85 1014.8
20260504040054 39 232 0.0 0.0 0.00 0.00 0.00 84 1014.8
20260504034555 39 232 0.0 0.0 0.00 0.00 0.00 84 1014.8
20260504033052 40 232 0.0 0.0 0.00 0.00 0.00 83 1014.8
20260504031538 40 232 0.0 0.0 0.00 0.00 0.00 83 1014.8
20260504030044 41 231 0.0 0.0 0.00 0.00 0.00 82 1015.0
20260504024508 41 232 0.0 0.0 0.00 0.00 0.00 81 1015.0
20260504023006 42 232 0.0 0.0 0.00 0.00 0.00 80 1015.0
20260504021506 43 232 0.0 0.0 0.00 0.00 0.00 80 1015.1
20260504020005 43 231 0.0 0.0 0.00 0.00 0.00 79 1015.0
20260504014515 44 232 0.0 0.0 0.00 0.00 0.00 78 1015.0
20260504013005 45 231 0.0 0.0 0.00 0.00 0.00 77 1014.9
20260504011504 46 232 0.0 0.0 0.00 0.00 0.00 75 1014.8
20260504010003 47 231 0.0 0.0 0.00 0.00 0.00 72 1014.8
20260504004509 48 232 0.0 0.0 0.00 0.00 0.00 70 1014.7
20260504003008 49 232 0.0 0.0 0.00 0.00 0.00 67 1014.7
20260504001502 51 232 0.0 0.0 0.00 0.00 0.00 64 1014.7
20260504000002 53 232 0.0 0.0 0.00 0.00 0.00 58 1014.7
20260503234501 56 232 0.0 0.0 0.00 0.00 0.00 45 1014.7
20260503233100 57 235 0.0 0.0 0.00 0.00 0.00 43 1014.8
20260503231559 57 232 0.0 0.0 0.00 0.00 0.00 43 1014.9
20260503230104 57 273 0.0 0.0 0.00 0.00 0.00 45 1014.9
20260503224557 58 304 0.0 0.9 0.00 0.00 0.00 42 1015.0
20260503223100 58 288 0.0 3.5 0.00 0.00 0.00 42 1015.1
20260503221556 58 194 0.0 3.5 0.00 0.00 0.00 41 1015.1
20260503220056 58 260 0.0 0.0 0.00 0.00 0.00 42 1015.2
20260503214555 58 231 0.0 0.0 0.00 0.00 0.00 40 1015.3
20260503213106 58 196 0.0 0.9 0.00 0.00 0.00 40 1015.0
20260503211553 59 204 0.0 0.9 0.00 0.00 0.00 38 1015.0
20260503210100 60 206 0.0 0.0 0.00 0.00 0.00 39 1015.1
20260503204555 60 310 0.0 3.5 0.00 0.00 0.00 40 1015.4
20260503203050 60 183 0.0 2.6 0.00 0.00 0.00 42 1015.6
20260503201547 59 261 0.0 0.9 0.00 0.00 0.00 39 1016.0
20260503200054 59 232 0.0 1.7 0.00 0.00 0.00 39 1016.2
20260503194547 61 215 0.0 3.5 0.00 0.00 0.00 43 1016.4
20260503193051 58 298 0.0 3.5 0.00 0.00 0.00 42 1016.5
20260503191542 60 207 0.0 2.6 0.00 0.00 0.00 40 1016.8
20260503190039 59 283 0.0 2.6 0.00 0.00 0.00 47 1017.0
20260503184548 56 194 0.0 3.5 0.00 0.00 0.00 47 1017.2
20260503183052 58 191 0.0 1.7 0.00 0.00 0.00 47 1017.3
20260503181535 59 277 0.0 2.6 0.00 0.00 0.00 43 1017.4
20260503180041 59 210 0.0 6.1 0.00 0.00 0.00 39 1017.7
20260503174530 58 217 0.0 0.9 0.00 0.00 0.00 46 1017.6
20260503173042 57 220 0.0 0.9 0.00 0.00 0.00 44 1018.0
20260503171528 57 248 0.0 1.7 0.00 0.00 0.00 44 1018.1
20260503150104 52 254 0.0 2.6 0.00 0.00 0.00 46 1019.2
20260503081540 34 292 0.0 0.0 0.00 0.01 0.00 91 1018.0
20260503071542 33 292 0.0 0.0 0.00 0.01 0.00 90 1017.6